Time,TemperatureF,DewpointF,PressureIn,WindDirection,WindDirectionDegrees,WindSpeedMPH,WindSpeedGustMPH,Humidity,HourlyPrecipIn,Conditions,Clouds,dailyrainin,SoftwareType,DateUTC
2013-05-09 00:01:00,68.2,64.2,30.01,ENE,61,0.0,0.0,87,0.00,,---,0.00,VWS V14.00,2013-05-09 10:01:00,
2013-05-09 00:06:00,68.1,64.4,30.01,ENE,61,0.0,0.0,88,0.00,,---,0.00,VWS V14.00,2013-05-09 10:06:00,
2013-05-09 00:11:00,68.1,64.4,30.01,ENE,61,0.0,0.0,88,0.00,,---,0.00,VWS V14.00,2013-05-09 10:11:00,
2013-05-09 00:16:00,68.0,64.3,30.01,ENE,61,0.0,0.0,88,0.00,,---,0.00,VWS V14.00,2013-05-09 10:16:00,
2013-05-09 00:21:00,68.0,64.3,30.01,ENE,61,0.0,0.0,88,0.00,,---,0.00,VWS V14.00,2013-05-09 10:21:00,
2013-05-09 00:26:00,67.9,64.2,30.00,ENE,61,0.0,0.0,88,0.00,,---,0.00,VWS V14.00,2013-05-09 10:26:00,
2013-05-09 00:31:00,67.9,64.2,30.01,ENE,61,0.0,0.0,88,0.00,,---,0.00,VWS V14.00,2013-05-09 10:31:00,
2013-05-09 00:36:00,67.9,64.2,30.01,ENE,61,0.0,0.0,88,0.00,,---,0.00,VWS V14.00,2013-05-09 10:36:00,
2013-05-09 00:41:00,67.8,64.1,30.00,ENE,61,0.0,0.0,88,0.00,,---,0.00,VWS V14.00,2013-05-09 10:41:00,
2013-05-09 00:46:00,67.7,64.0,30.00,ENE,61,0.0,0.0,88,0.00,,---,0.00,VWS V14.00,2013-05-09 10:46:00,
2013-05-09 00:51:00,67.6,63.9,30.00,ENE,61,0.0,0.0,88,0.00,,---,0.00,VWS V14.00,2013-05-09 10:51:00,
2013-05-09 00:56:00,67.5,63.8,30.00,ENE,61,0.0,0.0,88,0.00,,---,0.00,VWS V14.00,2013-05-09 10:56:00,
2013-05-09 01:01:00,67.4,64.1,30.00,ENE,61,0.0,0.0,89,0.00,,---,0.00,VWS V14.00,2013-05-09 11:01:00,
2013-05-09 01:06:00,67.4,64.1,30.00,ENE,61,0.0,0.0,89,0.00,,---,0.00,VWS V14.00,2013-05-09 11:06:00,
2013-05-09 01:11:00,67.3,64.0,30.00,ENE,61,0.0,0.0,89,0.00,,---,0.00,VWS V14.00,2013-05-09 11:11:00,
2013-05-09 01:16:00,67.3,64.0,29.99,ENE,61,0.0,0.0,89,0.00,,---,0.00,VWS V14.00,2013-05-09 11:16:00,
2013-05-09 01:21:00,67.2,63.8,29.99,ENE,61,0.0,0.0,89,0.00,,---,0.00,VWS V14.00,2013-05-09 11:21:00,
2013-05-09 01:26:00,67.2,63.8,29.99,ENE,61,0.0,0.0,89,0.00,,---,0.00,VWS V14.00,2013-05-09 11:26:00,
2013-05-09 01:31:00,67.3,64.0,29.99,ENE,61,0.0,1.0,89,0.00,,---,0.00,VWS V14.00,2013-05-09 11:31:00,
2013-05-09 01:36:00,67.3,64.0,29.99,ENE,61,0.0,0.0,89,0.00,,---,0.00,VWS V14.00,2013-05-09 11:36:00,
2013-05-09 01:41:00,67.3,64.0,29.99,ENE,61,0.0,0.0,89,0.00,,---,0.00,VWS V14.00,2013-05-09 11:41:00,
2013-05-09 01:46:00,67.3,64.0,29.98,ENE,61,0.0,0.0,89,0.00,,---,0.00,VWS V14.00,2013-05-09 11:46:00,
2013-05-09 01:51:00,67.3,64.0,29.99,ENE,61,0.0,0.0,89,0.00,,---,0.00,VWS V14.00,2013-05-09 11:51:00,
2013-05-09 01:56:00,67.3,64.0,29.99,ENE,61,0.0,0.0,89,0.00,,---,0.00,VWS V14.00,2013-05-09 11:56:00,
2013-05-09 02:01:00,67.3,64.0,29.99,ENE,61,0.0,1.0,89,0.00,,---,0.00,VWS V14.00,2013-05-09 12:01:00,
2013-05-09 02:06:00,67.2,63.8,29.99,ENE,61,0.0,0.0,89,0.00,,---,0.00,VWS V14.00,2013-05-09 12:06:00,
2013-05-09 02:11:00,67.2,63.8,29.98,ENE,61,0.0,0.0,89,0.00,,---,0.00,VWS V14.00,2013-05-09 12:11:00,
2013-05-09 02:16:00,67.1,63.8,29.98,ENE,61,0.0,0.0,89,0.00,,---,0.00,VWS V14.00,2013-05-09 12:16:00,
2013-05-09 02:21:00,67.1,63.8,29.98,ENE,61,0.0,0.0,89,0.00,,---,0.00,VWS V14.00,2013-05-09 12:21:00,
2013-05-09 02:26:00,67.0,64.0,29.98,ENE,61,0.0,0.0,90,0.00,,---,0.00,VWS V14.00,2013-05-09 12:26:00,
2013-05-09 02:31:00,67.0,64.0,29.98,ENE,61,0.0,0.0,90,0.00,,---,0.00,VWS V14.00,2013-05-09 12:31:00,
2013-05-09 02:36:00,66.9,63.9,29.98,ENE,61,0.0,0.0,90,0.00,,---,0.00,VWS V14.00,2013-05-09 12:36:00,
2013-05-09 02:41:00,66.9,63.9,29.98,ENE,61,0.0,0.0,90,0.00,,---,0.00,VWS V14.00,2013-05-09 12:41:00,
2013-05-09 02:46:00,66.8,63.8,29.98,ENE,61,0.0,0.0,90,0.00,,---,0.00,VWS V14.00,2013-05-09 12:46:00,
2013-05-09 02:51:00,66.8,63.8,29.98,ENE,61,0.0,0.0,90,0.00,,---,0.00,VWS V14.00,2013-05-09 12:51:00,
2013-05-09 02:56:00,66.8,63.8,29.98,ENE,61,0.0,0.0,90,0.00,,---,0.00,VWS V14.00,2013-05-09 12:56:00,
2013-05-09 03:01:00,66.7,63.7,29.98,ENE,61,0.0,0.0,90,0.00,,---,0.00,VWS V14.00,2013-05-09 13:01:00,
2013-05-09 03:06:00,66.7,63.7,29.98,ENE,61,0.0,0.0,90,0.00,,---,0.00,VWS V14.00,2013-05-09 13:06:00,
2013-05-09 03:11:00,66.6,63.6,29.98,ENE,61,0.0,0.0,90,0.00,,---,0.00,VWS V14.00,2013-05-09 13:11:00,
2013-05-09 03:16:00,66.6,63.6,29.98,ENE,61,0.0,0.0,90,0.00,,---,0.00,VWS V14.00,2013-05-09 13:16:00,
2013-05-09 03:21:00,66.5,63.5,29.98,ENE,61,0.0,0.0,90,0.00,,---,0.00,VWS V14.00,2013-05-09 13:21:00,
2013-05-09 03:26:00,66.4,63.4,29.98,ENE,61,0.0,0.0,90,0.00,,---,0.00,VWS V14.00,2013-05-09 13:26:00,
2013-05-09 03:31:00,66.3,63.3,29.98,ENE,61,0.0,0.0,90,0.00,,---,0.00,VWS V14.00,2013-05-09 13:31:00,
2013-05-09 03:36:00,66.4,63.4,29.98,ENE,61,0.0,0.0,90,0.00,,---,0.00,VWS V14.00,2013-05-09 13:36:00,
2013-05-09 03:41:00,66.5,63.5,29.98,ENE,61,0.0,0.0,90,0.00,,---,0.00,VWS V14.00,2013-05-09 13:41:00,
2013-05-09 03:46:00,66.5,63.5,29.98,ENE,61,0.0,0.0,90,0.00,,---,0.00,VWS V14.00,2013-05-09 13:46:00,
2013-05-09 03:51:00,66.5,63.5,29.98,ENE,61,0.0,0.0,90,0.00,,---,0.00,VWS V14.00,2013-05-09 13:51:00,
2013-05-09 03:56:00,66.5,63.5,29.98,ENE,61,0.0,0.0,90,0.00,,---,0.00,VWS V14.00,2013-05-09 13:56:00,
2013-05-09 04:01:00,66.5,63.5,29.98,ENE,61,0.0,0.0,90,0.00,,---,0.00,VWS V14.00,2013-05-09 14:01:00,
2013-05-09 04:06:00,66.5,63.5,29.98,ENE,61,0.0,0.0,90,0.00,,---,0.00,VWS V14.00,2013-05-09 14:06:00,
2013-05-09 04:11:00,66.5,63.8,29.98,ENE,61,0.0,0.0,91,0.00,,---,0.00,VWS V14.00,2013-05-09 14:11:00,
2013-05-09 04:16:00,66.5,63.8,29.99,ENE,61,0.0,0.0,91,0.00,,---,0.00,VWS V14.00,2013-05-09 14:16:00,
2013-05-09 04:21:00,66.7,64.0,29.98,ENE,61,0.0,0.0,91,0.00,,---,0.00,VWS V14.00,2013-05-09 14:21:00,
2013-05-09 04:26:00,66.7,64.0,29.99,ENE,61,0.0,0.0,91,0.00,,---,0.00,VWS V14.00,2013-05-09 14:26:00,
2013-05-09 04:31:00,66.8,64.1,29.99,ENE,61,0.0,0.0,91,0.00,,---,0.00,VWS V14.00,2013-05-09 14:31:00,
2013-05-09 04:36:00,66.9,64.2,29.99,ENE,61,0.0,0.0,91,0.00,,---,0.00,VWS V14.00,2013-05-09 14:36:00,
2013-05-09 04:41:00,67.1,64.4,29.99,ENE,61,0.0,0.0,91,0.00,,---,0.00,VWS V14.00,2013-05-09 14:41:00,
2013-05-09 04:45:00,67.2,64.5,29.99,ENE,61,0.0,0.0,91,0.00,,---,0.00,VWS V14.00,2013-05-09 14:45:00,
2013-05-09 04:50:00,67.4,64.7,29.99,ENE,61,0.0,0.0,91,0.00,,---,0.00,VWS V14.00,2013-05-09 14:50:00,
2013-05-09 04:55:00,67.5,64.8,29.99,ENE,61,0.0,0.0,91,0.00,,---,0.00,VWS V14.00,2013-05-09 14:55:00,
2013-05-09 05:00:00,67.6,64.9,29.99,ENE,61,0.0,0.0,91,0.00,,---,0.00,VWS V14.00,2013-05-09 15:00:00,
2013-05-09 05:05:00,67.7,65.0,29.99,ENE,61,0.0,0.0,91,0.00,,---,0.00,VWS V14.00,2013-05-09 15:05:00,
2013-05-09 05:10:00,67.8,65.1,29.99,ENE,61,0.0,0.0,91,0.00,,---,0.00,VWS V14.00,2013-05-09 15:10:00,
2013-05-09 05:15:00,68.0,65.3,29.99,ENE,61,0.0,0.0,91,0.00,,---,0.00,VWS V14.00,2013-05-09 15:15:00,
2013-05-09 05:20:00,68.1,65.4,29.99,ENE,61,0.0,0.0,91,0.00,,---,0.00,VWS V14.00,2013-05-09 15:20:00,
2013-05-09 05:25:00,68.2,65.5,29.99,ENE,61,0.0,0.0,91,0.00,,---,0.00,VWS V14.00,2013-05-09 15:25:00,
2013-05-09 05:30:00,68.3,65.6,29.99,ENE,61,0.0,0.0,91,0.00,,---,0.00,VWS V14.00,2013-05-09 15:30:00,
2013-05-09 05:35:00,68.3,65.6,29.99,ENE,61,0.0,0.0,91,0.00,,---,0.00,VWS V14.00,2013-05-09 15:35:00,
2013-05-09 05:40:00,68.4,65.7,29.99,ENE,61,0.0,0.0,91,0.00,,---,0.00,VWS V14.00,2013-05-09 15:40:00,
2013-05-09 05:45:00,68.5,65.8,29.99,ENE,61,0.0,0.0,91,0.00,,---,0.00,VWS V14.00,2013-05-09 15:45:00,
2013-05-09 05:50:00,68.6,65.9,30.00,ENE,61,0.0,0.0,91,0.00,,---,0.00,VWS V14.00,2013-05-09 15:50:00,
2013-05-09 05:55:00,68.6,65.6,30.00,ENE,61,0.0,0.0,90,0.00,,---,0.00,VWS V14.00,2013-05-09 15:55:00,
2013-05-09 06:00:00,68.7,65.7,30.00,ENE,61,0.0,0.0,90,0.00,,---,0.00,VWS V14.00,2013-05-09 16:00:00,
2013-05-09 06:05:00,68.8,65.8,30.00,ENE,61,0.0,0.0,90,0.00,,---,0.00,VWS V14.00,2013-05-09 16:05:00,
2013-05-09 06:10:00,68.9,65.8,30.00,ENE,61,0.0,0.0,90,0.00,,---,0.00,VWS V14.00,2013-05-09 16:10:00,
2013-05-09 06:15:00,69.0,65.9,30.00,ENE,61,0.0,0.0,90,0.00,,---,0.00,VWS V14.00,2013-05-09 16:15:00,
2013-05-09 06:20:00,69.1,66.1,30.01,ENE,61,0.0,0.0,90,0.00,,---,0.00,VWS V14.00,2013-05-09 16:20:00,
2013-05-09 06:25:00,69.3,66.2,30.01,ENE,61,0.0,0.0,90,0.00,,---,0.00,VWS V14.00,2013-05-09 16:25:00,
2013-05-09 06:30:00,69.5,66.4,30.01,ENE,61,0.0,0.0,90,0.00,,---,0.00,VWS V14.00,2013-05-09 16:30:00,
2013-05-09 06:35:00,69.6,66.5,30.01,ENE,61,0.0,0.0,90,0.00,,---,0.00,VWS V14.00,2013-05-09 16:35:00,
2013-05-09 06:40:00,69.8,66.7,30.01,ENE,61,0.0,0.0,90,0.00,,---,0.00,VWS V14.00,2013-05-09 16:40:00,
2013-05-09 06:45:00,70.0,66.9,30.01,ENE,61,0.0,1.0,90,0.00,,---,0.00,VWS V14.00,2013-05-09 16:45:00,
2013-05-09 06:50:00,70.2,67.1,30.02,ENE,61,0.0,1.0,90,0.00,,---,0.00,VWS V14.00,2013-05-09 16:50:00,
2013-05-09 06:55:00,70.4,67.3,30.02,ENE,61,0.0,1.0,90,0.00,,---,0.00,VWS V14.00,2013-05-09 16:55:00,
2013-05-09 07:00:00,70.6,67.2,30.03,ENE,61,0.0,1.0,89,0.00,,---,0.00,VWS V14.00,2013-05-09 17:00:00,
2013-05-09 07:05:00,70.8,67.4,30.03,ENE,61,2.0,2.0,89,0.00,,---,0.00,VWS V14.00,2013-05-09 17:05:00,
2013-05-09 07:10:00,71.1,67.7,30.03,ENE,61,0.0,2.0,89,0.00,,---,0.00,VWS V14.00,2013-05-09 17:10:00,
2013-05-09 07:15:00,71.4,67.7,30.03,ENE,61,0.0,2.0,88,0.00,,---,0.00,VWS V14.00,2013-05-09 17:15:00,
2013-05-09 07:20:00,71.8,68.1,30.03,ENE,61,0.0,2.0,88,0.00,,---,0.00,VWS V14.00,2013-05-09 17:20:00,
2013-05-09 07:25:00,72.2,68.1,30.03,ENE,61,0.0,2.0,87,0.00,,---,0.00,VWS V14.00,2013-05-09 17:25:00,
2013-05-09 07:30:00,72.5,68.1,30.03,ENE,61,0.0,2.0,86,0.00,,---,0.00,VWS V14.00,2013-05-09 17:30:00,
2013-05-09 07:35:00,73.0,68.6,30.03,ENE,61,0.0,0.0,86,0.00,,---,0.00,VWS V14.00,2013-05-09 17:35:00,
2013-05-09 07:40:00,73.4,68.6,30.03,ENE,61,0.0,1.0,85,0.00,,---,0.00,VWS V14.00,2013-05-09 17:40:00,
2013-05-09 07:45:00,73.9,68.8,30.03,ENE,61,0.0,2.0,84,0.00,,---,0.00,VWS V14.00,2013-05-09 17:45:00,
2013-05-09 07:50:00,74.4,68.6,30.03,ENE,61,0.0,4.0,82,0.00,,---,0.00,VWS V14.00,2013-05-09 17:50:00,
2013-05-09 07:55:00,74.8,68.6,30.03,ENE,61,0.0,4.0,81,0.00,,---,0.00,VWS V14.00,2013-05-09 17:55:00,
2013-05-09 08:00:00,75.4,69.2,30.03,ENE,61,1.0,4.0,81,0.00,,---,0.00,VWS V14.00,2013-05-09 18:00:00,
2013-05-09 08:05:00,76.1,69.1,30.03,ENE,61,0.0,1.0,79,0.00,,---,0.00,VWS V14.00,2013-05-09 18:05:00,
2013-05-09 08:10:00,76.6,69.2,30.03,ENE,61,0.0,3.0,78,0.00,,---,0.00,VWS V14.00,2013-05-09 18:10:00,
2013-05-09 08:15:00,77.0,69.2,30.03,ENE,61,3.0,4.0,77,0.00,,---,0.00,VWS V14.00,2013-05-09 18:15:00,
2013-05-09 08:20:00,77.3,69.2,30.03,ENE,61,0.0,4.0,76,0.00,,---,0.00,VWS V14.00,2013-05-09 18:20:00,
2013-05-09 08:25:00,77.8,70.0,30.03,ENE,61,0.0,4.0,77,0.00,,---,0.00,VWS V14.00,2013-05-09 18:25:00,
2013-05-09 08:30:00,77.7,69.2,30.03,ENE,61,0.0,4.0,75,0.00,,---,0.00,VWS V14.00,2013-05-09 18:30:00,
2013-05-09 08:35:00,77.3,68.8,30.03,ENE,61,2.0,2.0,75,0.00,,---,0.00,VWS V14.00,2013-05-09 18:35:00,
2013-05-09 08:40:00,77.1,68.6,30.03,ENE,61,0.0,3.0,75,0.00,,---,0.00,VWS V14.00,2013-05-09 18:40:00,
2013-05-09 08:45:00,77.3,69.2,30.03,ENE,61,1.0,5.0,76,0.00,,---,0.00,VWS V14.00,2013-05-09 18:45:00,
2013-05-09 08:50:00,77.5,69.3,30.03,NE,54,2.0,6.0,76,0.00,,---,0.00,VWS V14.00,2013-05-09 18:50:00,
2013-05-09 08:55:00,77.9,69.7,30.03,NE,55,0.0,6.0,76,0.00,,---,0.00,VWS V14.00,2013-05-09 18:55:00,
2013-05-09 09:00:00,78.3,69.7,30.03,NE,55,0.0,6.0,75,0.00,,---,0.00,VWS V14.00,2013-05-09 19:00:00,
2013-05-09 09:05:00,78.3,69.3,30.03,NE,49,4.0,6.0,74,0.00,,---,0.00,VWS V14.00,2013-05-09 19:05:00,
2013-05-09 09:10:00,78.3,68.9,30.03,NE,49,2.0,6.0,73,0.00,,---,0.00,VWS V14.00,2013-05-09 19:10:00,
2013-05-09 09:15:00,78.6,69.6,30.03,NE,49,2.0,6.0,74,0.00,,---,0.00,VWS V14.00,2013-05-09 19:15:00,
2013-05-09 09:20:00,78.8,69.8,30.03,NE,49,2.0,6.0,74,0.00,,---,0.00,VWS V14.00,2013-05-09 19:20:00,
2013-05-09 09:25:00,78.7,69.3,30.04,NE,48,2.0,6.0,73,0.00,,---,0.00,VWS V14.00,2013-05-09 19:25:00,
2013-05-09 09:30:00,78.3,68.9,30.04,NE,48,2.0,6.0,73,0.00,,---,0.00,VWS V14.00,2013-05-09 19:30:00,
2013-05-09 09:35:00,77.7,68.8,30.04,NE,48,3.0,7.0,74,0.00,,---,0.00,VWS V14.00,2013-05-09 19:35:00,
2013-05-09 09:40:00,77.5,69.0,30.04,NE,48,2.0,7.0,75,0.00,,---,0.00,VWS V14.00,2013-05-09 19:40:00,
2013-05-09 09:45:00,77.9,68.9,30.03,NE,46,4.0,7.0,74,0.00,,---,0.00,VWS V14.00,2013-05-09 19:45:00,
2013-05-09 09:50:00,77.7,68.4,30.03,NE,52,4.0,7.0,73,0.00,,---,0.00,VWS V14.00,2013-05-09 19:50:00,
2013-05-09 09:55:00,77.5,68.2,30.03,NE,51,2.0,7.0,73,0.00,,---,0.00,VWS V14.00,2013-05-09 19:55:00,
2013-05-09 10:00:00,77.4,68.5,30.04,NE,51,1.0,7.0,74,0.00,,---,0.00,VWS V14.00,2013-05-09 20:00:00,
2013-05-09 10:05:00,77.4,68.5,30.03,NE,49,4.0,5.0,74,0.00,,---,0.00,VWS V14.00,2013-05-09 20:05:00,
2013-05-09 10:10:00,77.7,68.8,30.03,NE,49,0.0,5.0,74,0.00,,---,0.00,VWS V14.00,2013-05-09 20:10:00,
2013-05-09 10:15:00,78.2,69.2,30.04,NE,49,1.0,5.0,74,0.00,,---,0.00,VWS V14.00,2013-05-09 20:15:00,
2013-05-09 10:20:00,78.4,69.0,30.03,NE,49,2.0,5.0,73,0.00,,---,0.00,VWS V14.00,2013-05-09 20:20:00,
2013-05-09 10:25:00,78.5,69.1,30.03,NE,49,0.0,5.0,73,0.00,,---,0.00,VWS V14.00,2013-05-09 20:25:00,
2013-05-09 10:30:00,79.0,69.2,30.03,NE,38,3.0,7.0,72,0.00,,---,0.00,VWS V14.00,2013-05-09 20:30:00,
2013-05-09 10:35:00,79.3,69.5,30.03,ENE,63,2.0,6.0,72,0.00,,---,0.00,VWS V14.00,2013-05-09 20:35:00,
2013-05-09 10:40:00,79.8,69.2,30.03,ENE,72,2.0,6.0,70,0.00,,---,0.00,VWS V14.00,2013-05-09 20:40:00,
2013-05-09 10:45:00,80.2,69.9,30.04,ENE,74,1.0,6.0,71,0.00,,---,0.00,VWS V14.00,2013-05-09 20:45:00,
2013-05-09 10:50:00,80.6,69.5,30.04,ENE,76,0.0,6.0,69,0.00,,---,0.00,VWS V14.00,2013-05-09 20:50:00,
2013-05-09 10:55:00,80.6,69.5,30.04,ENE,76,1.0,6.0,69,0.00,,---,0.00,VWS V14.00,2013-05-09 20:55:00,
2013-05-09 11:00:00,80.2,69.1,30.04,ENE,78,2.0,6.0,69,0.00,,---,0.00,VWS V14.00,2013-05-09 21:00:00,
2013-05-09 11:05:00,79.7,69.5,30.04,ENE,78,2.0,2.0,71,0.00,,---,0.00,VWS V14.00,2013-05-09 21:05:00,
2013-05-09 11:10:00,79.1,68.9,30.04,ENE,69,1.0,6.0,71,0.00,,---,0.00,VWS V14.00,2013-05-09 21:10:00,
2013-05-09 11:15:00,78.4,68.6,30.04,ENE,69,1.0,6.0,72,0.00,,---,0.00,VWS V14.00,2013-05-09 21:15:00,
2013-05-09 11:20:00,78.0,68.7,30.04,ENE,69,0.0,6.0,73,0.00,,---,0.00,VWS V14.00,2013-05-09 21:20:00,
2013-05-09 11:25:00,77.9,68.9,30.04,ENE,69,1.0,6.0,74,0.00,,---,0.00,VWS V14.00,2013-05-09 21:25:00,
2013-05-09 11:30:00,77.9,68.6,30.04,ENE,69,1.0,6.0,73,0.00,,---,0.00,VWS V14.00,2013-05-09 21:30:00,
2013-05-09 11:35:00,77.9,68.6,30.03,ENE,69,4.0,4.0,73,0.00,,---,0.00,VWS V14.00,2013-05-09 21:35:00,
2013-05-09 11:40:00,77.9,68.9,30.03,ENE,69,1.0,5.0,74,0.00,,---,0.00,VWS V14.00,2013-05-09 21:40:00,
2013-05-09 11:45:00,78.0,68.7,30.03,ENE,71,1.0,5.0,73,0.00,,---,0.00,VWS V14.00,2013-05-09 21:45:00,
2013-05-09 11:50:00,78.1,68.8,30.03,ENE,71,0.0,5.0,73,0.00,,---,0.00,VWS V14.00,2013-05-09 21:50:00,
2013-05-09 11:55:00,78.2,68.8,30.03,ENE,71,1.0,5.0,73,0.00,,---,0.00,VWS V14.00,2013-05-09 21:55:00,
2013-05-09 12:00:00,78.4,69.0,30.03,ENE,71,1.0,5.0,73,0.00,,---,0.00,VWS V14.00,2013-05-09 22:00:00,
2013-05-09 12:05:00,78.5,69.1,30.03,ENE,71,1.0,4.0,73,0.00,,---,0.00,VWS V14.00,2013-05-09 22:05:00,
2013-05-09 12:10:00,78.5,69.1,30.03,ENE,71,0.0,5.0,73,0.00,,---,0.00,VWS V14.00,2013-05-09 22:10:00,
2013-05-09 12:15:00,78.4,69.0,30.03,ENE,70,3.0,5.0,73,0.00,,---,0.00,VWS V14.00,2013-05-09 22:15:00,
2013-05-09 12:20:00,78.3,68.9,30.03,ENE,70,3.0,5.0,73,0.00,,---,0.00,VWS V14.00,2013-05-09 22:20:00,
2013-05-09 12:25:00,77.9,68.6,30.03,ENE,58,0.0,8.0,73,0.00,,---,0.00,VWS V14.00,2013-05-09 22:25:00,
2013-05-09 12:30:00,77.5,68.6,30.03,NE,55,0.0,8.0,74,0.00,,---,0.00,VWS V14.00,2013-05-09 22:30:00,
2013-05-09 12:35:00,77.4,68.5,30.03,NE,55,3.0,3.0,74,0.00,,---,0.00,VWS V14.00,2013-05-09 22:35:00,
2013-05-09 12:40:00,77.3,68.4,30.03,NE,55,2.0,3.0,74,0.00,,---,0.00,VWS V14.00,2013-05-09 22:40:00,
2013-05-09 12:45:00,77.1,68.2,30.02,NE,55,2.0,4.0,74,0.00,,---,0.00,VWS V14.00,2013-05-09 22:45:00,
2013-05-09 12:50:00,77.0,68.1,30.02,NE,55,2.0,4.0,74,0.00,,---,0.00,VWS V14.00,2013-05-09 22:50:00,
2013-05-09 12:55:00,77.0,68.1,30.02,NE,55,0.0,4.0,74,0.00,,---,0.00,VWS V14.00,2013-05-09 22:55:00,
2013-05-09 13:00:00,77.0,67.7,30.02,NE,55,0.0,4.0,73,0.00,,---,0.00,VWS V14.00,2013-05-09 23:00:00,
2013-05-09 13:05:00,76.9,68.0,30.02,NE,55,1.0,4.0,74,0.00,,---,0.00,VWS V14.00,2013-05-09 23:05:00,
2013-05-09 13:10:00,76.9,68.4,30.02,NE,55,1.0,4.0,75,0.00,,---,0.00,VWS V14.00,2013-05-09 23:10:00,
2013-05-09 13:15:00,76.9,68.4,30.02,NE,55,0.0,4.0,75,0.00,,---,0.00,VWS V14.00,2013-05-09 23:15:00,
2013-05-09 13:20:00,77.0,68.5,30.02,NE,55,3.0,4.0,75,0.00,,---,0.00,VWS V14.00,2013-05-09 23:20:00,
2013-05-09 13:25:00,77.2,68.3,30.01,NE,55,3.0,4.0,74,0.00,,---,0.00,VWS V14.00,2013-05-09 23:25:00,
2013-05-09 13:30:00,77.4,68.1,30.01,NE,55,1.0,4.0,73,0.00,,---,0.00,VWS V14.00,2013-05-09 23:30:00,
2013-05-09 13:35:00,77.4,67.7,30.01,NE,55,0.0,4.0,72,0.00,,---,0.00,VWS V14.00,2013-05-09 23:35:00,
2013-05-09 13:40:00,77.4,67.7,30.01,NE,55,0.0,4.0,72,0.00,,---,0.00,VWS V14.00,2013-05-09 23:40:00,
2013-05-09 13:45:00,77.5,68.2,30.01,NE,54,3.0,4.0,73,0.00,,---,0.00,VWS V14.00,2013-05-09 23:45:00,
2013-05-09 13:50:00,77.4,68.1,30.00,NE,54,2.0,4.0,73,0.00,,---,0.00,VWS V14.00,2013-05-09 23:50:00,
2013-05-09 13:55:00,77.3,68.0,30.00,NE,54,0.0,4.0,73,0.00,,---,0.00,VWS V14.00,2013-05-09 23:55:00,
2013-05-09 14:00:00,77.2,67.9,30.00,NE,54,0.0,4.0,73,0.00,,---,0.00,VWS V14.00,2013-05-10 00:00:00,
2013-05-09 14:05:00,77.0,67.7,30.00,NE,54,2.0,3.0,73,0.00,,---,0.00,VWS V14.00,2013-05-10 00:05:00,
2013-05-09 14:10:00,77.0,68.1,30.00,NE,54,2.0,3.0,74,0.00,,---,0.00,VWS V14.00,2013-05-10 00:10:00,
2013-05-09 14:15:00,76.9,68.0,30.00,NE,54,0.0,4.0,74,0.00,,---,0.00,VWS V14.00,2013-05-10 00:15:00,
2013-05-09 14:20:00,76.8,67.9,30.00,NE,54,2.0,4.0,74,0.00,,---,0.00,VWS V14.00,2013-05-10 00:20:00,
2013-05-09 14:25:00,76.8,67.9,30.00,NE,54,3.0,4.0,74,0.00,,---,0.00,VWS V14.00,2013-05-10 00:25:00,
2013-05-09 14:30:00,76.8,68.3,29.99,NE,54,2.0,4.0,75,0.00,,---,0.00,VWS V14.00,2013-05-10 00:30:00,
2013-05-09 14:35:00,76.7,68.2,29.99,NE,54,1.0,4.0,75,0.00,,---,0.00,VWS V14.00,2013-05-10 00:35:00,
2013-05-09 14:40:00,76.6,68.1,29.99,NE,54,1.0,4.0,75,0.00,,---,0.00,VWS V14.00,2013-05-10 00:40:00,
2013-05-09 14:45:00,76.7,68.2,29.99,NE,54,1.0,5.0,75,0.00,,---,0.00,VWS V14.00,2013-05-10 00:45:00,
2013-05-09 14:50:00,76.7,68.2,29.99,NE,54,0.0,5.0,75,0.00,,---,0.00,VWS V14.00,2013-05-10 00:50:00,
2013-05-09 14:55:00,76.7,68.2,29.99,NE,54,3.0,5.0,75,0.00,,---,0.00,VWS V14.00,2013-05-10 00:55:00,
2013-05-09 15:00:00,76.6,68.1,29.99,NE,54,2.0,5.0,75,0.00,,---,0.00,VWS V14.00,2013-05-10 01:00:00,
2013-05-09 15:05:00,76.6,67.7,29.98,NE,53,2.0,3.0,74,0.00,,---,0.00,VWS V14.00,2013-05-10 01:05:00,
2013-05-09 15:10:00,76.6,67.7,29.98,NE,53,3.0,5.0,74,0.00,,---,0.00,VWS V14.00,2013-05-10 01:10:00,
2013-05-09 15:15:00,76.8,67.9,29.98,NE,52,3.0,5.0,74,0.00,,---,0.00,VWS V14.00,2013-05-10 01:15:00,
2013-05-09 15:20:00,76.7,67.8,29.98,NE,52,0.0,5.0,74,0.00,,---,0.00,VWS V14.00,2013-05-10 01:20:00,
2013-05-09 15:25:00,76.8,67.9,29.98,NE,52,1.0,5.0,74,0.00,,---,0.00,VWS V14.00,2013-05-10 01:25:00,
2013-05-09 15:30:00,76.9,68.0,29.98,NE,51,1.0,5.0,74,0.00,,---,0.00,VWS V14.00,2013-05-10 01:30:00,
2013-05-09 15:35:00,76.9,68.0,29.98,NE,51,2.0,5.0,74,0.00,,---,0.00,VWS V14.00,2013-05-10 01:35:00,
2013-05-09 15:40:00,76.9,68.0,29.97,NE,46,0.0,6.0,74,0.00,,---,0.00,VWS V14.00,2013-05-10 01:40:00,
2013-05-09 15:45:00,77.1,68.2,29.97,NE,45,1.0,6.0,74,0.00,,---,0.00,VWS V14.00,2013-05-10 01:45:00,
2013-05-09 15:50:00,77.1,68.2,29.97,NE,40,2.0,6.0,74,0.00,,---,0.00,VWS V14.00,2013-05-10 01:50:00,
2013-05-09 15:55:00,77.1,68.2,29.97,NE,40,0.0,6.0,74,0.00,,---,0.00,VWS V14.00,2013-05-10 01:55:00,
2013-05-09 16:00:00,77.2,68.3,29.98,NE,40,2.0,6.0,74,0.00,,---,0.00,VWS V14.00,2013-05-10 02:00:00,
2013-05-09 16:05:00,77.3,68.0,29.97,NE,40,0.0,3.0,73,0.00,,---,0.00,VWS V14.00,2013-05-10 02:05:00,
2013-05-09 16:10:00,77.3,68.0,29.97,NE,40,4.0,5.0,73,0.00,,---,0.00,VWS V14.00,2013-05-10 02:10:00,
2013-05-09 16:15:00,77.2,67.9,29.97,NE,40,0.0,5.0,73,0.00,,---,0.00,VWS V14.00,2013-05-10 02:15:00,
2013-05-09 16:20:00,77.2,67.9,29.97,NE,40,1.0,5.0,73,0.00,,---,0.00,VWS V14.00,2013-05-10 02:20:00,
2013-05-09 16:25:00,77.2,67.9,29.97,NE,40,1.0,5.0,73,0.00,,---,0.00,VWS V14.00,2013-05-10 02:25:00,
2013-05-09 16:30:00,77.1,67.8,29.97,NE,40,1.0,5.0,73,0.00,,---,0.00,VWS V14.00,2013-05-10 02:30:00,
2013-05-09 16:35:00,77.0,67.7,29.97,NE,40,1.0,5.0,73,0.00,,---,0.00,VWS V14.00,2013-05-10 02:35:00,
2013-05-09 16:40:00,77.0,68.1,29.97,NE,40,1.0,5.0,74,0.00,,---,0.00,VWS V14.00,2013-05-10 02:40:00,
2013-05-09 16:45:00,76.9,68.4,29.98,NE,40,3.0,5.0,75,0.00,,---,0.00,VWS V14.00,2013-05-10 02:45:00,
2013-05-09 16:50:00,76.9,68.4,29.97,NE,40,1.0,5.0,75,0.00,,---,0.00,VWS V14.00,2013-05-10 02:50:00,
2013-05-09 16:55:00,76.8,68.3,29.98,NE,36,3.0,6.0,75,0.00,,---,0.00,VWS V14.00,2013-05-10 02:55:00,
2013-05-09 17:00:00,76.7,68.2,29.98,NE,36,3.0,6.0,75,0.00,,---,0.00,VWS V14.00,2013-05-10 03:00:00,
2013-05-09 17:05:00,76.6,68.5,29.98,NE,36,1.0,3.0,76,0.00,,---,0.00,VWS V14.00,2013-05-10 03:05:00,
2013-05-09 17:10:00,76.5,68.4,29.98,NE,36,1.0,3.0,76,0.00,,---,0.00,VWS V14.00,2013-05-10 03:10:00,
2013-05-09 17:15:00,76.5,68.4,29.98,NE,36,1.0,3.0,76,0.00,,---,0.00,VWS V14.00,2013-05-10 03:15:00,
2013-05-09 17:20:00,76.6,68.5,29.98,NE,36,0.0,4.0,76,0.00,,---,0.00,VWS V14.00,2013-05-10 03:20:00,
2013-05-09 17:25:00,76.5,68.4,29.98,NE,36,0.0,4.0,76,0.00,,---,0.00,VWS V14.00,2013-05-10 03:25:00,
2013-05-09 17:29:00,76.5,68.4,29.98,NE,36,1.0,4.0,76,0.00,,---,0.00,VWS V14.00,2013-05-10 03:29:00,
2013-05-09 17:34:00,76.5,68.4,29.98,NE,36,3.0,5.0,76,0.00,,---,0.00,VWS V14.00,2013-05-10 03:34:00,
2013-05-09 17:39:00,76.4,68.3,29.98,NE,36,0.0,5.0,76,0.00,,---,0.00,VWS V14.00,2013-05-10 03:39:00,
2013-05-09 17:44:00,76.4,68.7,29.98,NE,36,0.0,5.0,77,0.00,,---,0.00,VWS V14.00,2013-05-10 03:44:00,
2013-05-09 17:49:00,76.5,68.8,29.99,NE,36,3.0,5.0,77,0.00,,---,0.00,VWS V14.00,2013-05-10 03:49:00,
2013-05-09 17:54:00,76.6,69.2,29.99,NNE,32,4.0,6.0,78,0.00,,---,0.00,VWS V14.00,2013-05-10 03:54:00,
2013-05-09 17:59:00,76.6,69.2,29.99,NNE,24,2.0,7.0,78,0.00,,---,0.00,VWS V14.00,2013-05-10 03:59:00,
2013-05-09 18:01:00,76.6,69.2,29.99,NNE,24,4.0,7.0,78,0.00,,---,0.00,VWS V14.00,2013-05-10 04:01:00,
2013-05-09 18:06:00,76.3,68.9,29.99,NNE,24,2.0,5.0,78,0.00,,---,0.00,VWS V14.00,2013-05-10 04:06:00,
2013-05-09 18:11:00,76.2,69.2,29.99,NNE,23,0.0,5.0,79,0.00,,---,0.00,VWS V14.00,2013-05-10 04:11:00,
2013-05-09 18:16:00,76.3,68.9,30.00,NNE,23,0.0,5.0,78,0.00,,---,0.00,VWS V14.00,2013-05-10 04:16:00,
2013-05-09 18:21:00,76.1,68.8,30.00,NNE,23,0.0,5.0,78,0.00,,---,0.00,VWS V14.00,2013-05-10 04:21:00,
2013-05-09 18:26:00,76.1,68.8,30.00,NNE,23,0.0,5.0,78,0.00,,---,0.00,VWS V14.00,2013-05-10 04:26:00,
2013-05-09 18:31:00,76.1,68.8,30.00,NNE,23,4.0,5.0,78,0.00,,---,0.00,VWS V14.00,2013-05-10 04:31:00,
2013-05-09 18:36:00,76.0,68.7,30.00,NNE,23,1.0,4.0,78,0.00,,---,0.00,VWS V14.00,2013-05-10 04:36:00,
2013-05-09 18:41:00,76.0,68.7,30.00,NNE,23,0.0,4.0,78,0.00,,---,0.00,VWS V14.00,2013-05-10 04:41:00,
2013-05-09 18:46:00,76.0,68.7,30.00,NNE,23,3.0,4.0,78,0.00,,---,0.00,VWS V14.00,2013-05-10 04:46:00,
2013-05-09 18:51:00,75.9,68.6,30.01,NNE,23,1.0,4.0,78,0.00,,---,0.00,VWS V14.00,2013-05-10 04:51:00,
2013-05-09 18:56:00,75.8,68.5,30.01,NNE,23,2.0,4.0,78,0.00,,---,0.00,VWS V14.00,2013-05-10 04:56:00,
2013-05-09 19:01:00,75.8,68.5,30.01,NNE,23,3.0,4.0,78,0.00,,---,0.00,VWS V14.00,2013-05-10 05:01:00,
2013-05-09 19:06:00,75.7,68.4,30.01,NNE,22,2.0,5.0,78,0.00,,---,0.00,VWS V14.00,2013-05-10 05:06:00,
2013-05-09 19:11:00,75.6,68.6,30.01,NNE,22,2.0,6.0,79,0.00,,---,0.00,VWS V14.00,2013-05-10 05:11:00,
2013-05-09 19:16:00,75.5,68.5,30.02,NNE,19,4.0,7.0,79,0.00,,---,0.00,VWS V14.00,2013-05-10 05:16:00,
2013-05-09 19:21:00,75.5,68.5,30.02,NNE,19,4.0,7.0,79,0.00,,---,0.00,VWS V14.00,2013-05-10 05:21:00,
2013-05-09 19:26:00,75.4,68.8,30.02,NNE,18,1.0,7.0,80,0.00,,---,0.00,VWS V14.00,2013-05-10 05:26:00,
2013-05-09 19:31:00,75.4,68.8,30.03,NNE,18,1.0,7.0,80,0.00,,---,0.00,VWS V14.00,2013-05-10 05:31:00,
2013-05-09 19:36:00,75.3,68.7,30.03,NNE,18,2.0,4.0,80,0.00,,---,0.00,VWS V14.00,2013-05-10 05:36:00,
2013-05-09 19:41:00,75.2,68.6,30.03,NNE,15,4.0,6.0,80,0.00,,---,0.00,VWS V14.00,2013-05-10 05:41:00,
2013-05-09 19:46:00,75.1,68.5,30.03,NNE,13,5.0,7.0,80,0.00,,---,0.00,VWS V14.00,2013-05-10 05:46:00,
2013-05-09 19:51:00,75.1,68.5,30.03,NNE,13,3.0,7.0,80,0.00,,---,0.00,VWS V14.00,2013-05-10 05:51:00,
2013-05-09 19:56:00,75.1,68.5,30.04,NNE,13,4.0,7.0,80,0.00,,---,0.00,VWS V14.00,2013-05-10 05:56:00,
2013-05-09 20:01:00,75.2,69.0,30.04,NNE,13,4.0,7.0,81,0.00,,---,0.00,VWS V14.00,2013-05-10 06:01:00,
2013-05-09 20:06:00,75.2,69.0,30.04,North,9,3.0,5.0,81,0.00,,---,0.00,VWS V14.00,2013-05-10 06:06:00,
2013-05-09 20:11:00,75.0,68.8,30.05,North,9,1.0,5.0,81,0.00,,---,0.00,VWS V14.00,2013-05-10 06:11:00,
2013-05-09 20:16:00,74.9,68.7,30.05,North,5,2.0,6.0,81,0.00,,---,0.00,VWS V14.00,2013-05-10 06:16:00,
2013-05-09 20:21:00,74.7,68.8,30.06,North,5,2.0,6.0,82,0.00,,---,0.00,VWS V14.00,2013-05-10 06:21:00,
2013-05-09 20:26:00,74.4,68.9,30.06,North,5,2.0,6.0,83,0.00,,---,0.00,VWS V14.00,2013-05-10 06:26:00,
2013-05-09 20:31:00,74.1,69.0,30.06,North,5,0.0,6.0,84,0.00,,---,0.01,VWS V14.00,2013-05-10 06:31:00,
2013-05-09 20:36:00,73.9,69.1,30.07,North,5,0.0,3.0,85,0.00,,---,0.01,VWS V14.00,2013-05-10 06:36:00,
2013-05-09 20:41:00,73.6,69.2,30.07,North,5,0.0,3.0,86,0.00,,---,0.01,VWS V14.00,2013-05-10 06:41:00,
2013-05-09 20:46:00,73.4,69.3,30.07,North,5,0.0,3.0,87,0.00,,---,0.01,VWS V14.00,2013-05-10 06:46:00,
2013-05-09 20:51:00,73.2,69.1,30.08,North,5,0.0,3.0,87,0.04,,---,0.02,VWS V14.00,2013-05-10 06:51:00,
2013-05-09 20:56:00,73.1,69.0,30.08,North,5,0.0,3.0,87,0.04,,---,0.02,VWS V14.00,2013-05-10 06:56:00,
2013-05-09 21:01:00,72.9,69.1,30.08,North,5,3.0,4.0,88,0.06,,---,0.03,VWS V14.00,2013-05-10 07:01:00,
2013-05-09 21:06:00,72.6,68.8,30.08,North,5,0.0,2.0,88,0.11,,---,0.04,VWS V14.00,2013-05-10 07:06:00,
2013-05-09 21:11:00,72.4,69.0,30.08,North,5,1.0,2.0,89,0.07,,---,0.04,VWS V14.00,2013-05-10 07:11:00,
2013-05-09 21:16:00,72.2,68.8,30.08,North,5,0.0,2.0,89,0.06,,---,0.05,VWS V14.00,2013-05-10 07:16:00,
2013-05-09 21:21:00,72.2,68.8,30.08,North,5,2.0,2.0,89,0.09,,---,0.06,VWS V14.00,2013-05-10 07:21:00,
2013-05-09 21:26:00,72.0,68.9,30.08,North,5,0.0,2.0,90,0.09,,---,0.06,VWS V14.00,2013-05-10 07:26:00,
2013-05-09 21:31:00,71.9,68.8,30.08,North,5,0.0,3.0,90,0.06,,---,0.06,VWS V14.00,2013-05-10 07:31:00,
2013-05-09 21:36:00,71.8,68.7,30.08,North,5,0.0,0.0,90,0.36,,---,0.08,VWS V14.00,2013-05-10 07:36:00,
2013-05-09 21:41:00,71.7,68.6,30.09,North,5,0.0,2.0,90,0.26,,---,0.10,VWS V14.00,2013-05-10 07:41:00,
2013-05-09 21:46:00,71.5,68.7,30.09,North,5,0.0,2.0,91,0.21,,---,0.12,VWS V14.00,2013-05-10 07:46:00,
2013-05-09 21:51:00,71.5,68.7,30.09,North,5,0.0,2.0,91,0.15,,---,0.13,VWS V14.00,2013-05-10 07:51:00,
2013-05-09 21:56:00,71.5,68.7,30.09,North,5,0.0,2.0,91,0.15,,---,0.15,VWS V14.00,2013-05-10 07:56:00,
2013-05-09 22:01:00,71.5,68.7,30.10,North,5,0.0,2.0,91,0.41,,---,0.18,VWS V14.00,2013-05-10 08:01:00,
2013-05-09 22:06:00,71.4,68.6,30.10,North,5,0.0,2.0,91,0.21,,---,0.19,VWS V14.00,2013-05-10 08:06:00,
2013-05-09 22:11:00,71.4,69.0,30.10,North,5,0.0,2.0,92,0.13,,---,0.20,VWS V14.00,2013-05-10 08:11:00,
2013-05-09 22:16:00,71.3,68.9,30.10,North,5,0.0,2.0,92,0.10,,---,0.21,VWS V14.00,2013-05-10 08:16:00,
2013-05-09 22:21:00,71.3,68.9,30.10,North,5,2.0,3.0,92,0.09,,---,0.21,VWS V14.00,2013-05-10 08:21:00,
2013-05-09 22:26:00,71.2,68.8,30.10,North,5,0.0,3.0,92,0.06,,---,0.22,VWS V14.00,2013-05-10 08:26:00,
2013-05-09 22:31:00,71.1,68.7,30.10,North,5,0.0,3.0,92,0.06,,---,0.22,VWS V14.00,2013-05-10 08:31:00,
2013-05-09 22:36:00,71.1,68.7,30.10,North,5,0.0,0.0,92,0.05,,---,0.22,VWS V14.00,2013-05-10 08:36:00,
2013-05-09 22:41:00,71.0,68.6,30.10,North,5,0.0,0.0,92,0.04,,---,0.22,VWS V14.00,2013-05-10 08:41:00,
2013-05-09 22:46:00,70.9,68.5,30.10,North,5,0.0,1.0,92,0.00,,---,0.22,VWS V14.00,2013-05-10 08:46:00,
2013-05-09 22:51:00,71.0,68.9,30.10,North,5,0.0,1.0,93,0.00,,---,0.23,VWS V14.00,2013-05-10 08:51:00,
2013-05-09 22:55:00,71.0,68.6,30.10,North,5,0.0,1.0,92,0.00,,---,0.23,VWS V14.00,2013-05-10 08:55:00,
2013-05-09 23:01:00,71.0,68.6,30.10,North,5,0.0,1.0,92,0.00,,---,0.23,VWS V14.00,2013-05-10 09:01:00,
2013-05-09 23:06:00,70.9,68.8,30.10,North,5,0.0,1.0,93,0.00,,---,0.23,VWS V14.00,2013-05-10 09:06:00,
2013-05-09 23:10:00,70.7,68.3,30.10,North,5,0.0,1.0,92,0.00,,---,0.23,VWS V14.00,2013-05-10 09:10:00,
2013-05-09 23:15:00,70.5,68.1,30.09,North,5,0.0,1.0,92,0.00,,---,0.23,VWS V14.00,2013-05-10 09:15:00,
2013-05-09 23:20:00,70.4,68.0,30.09,North,5,0.0,1.0,92,0.00,,---,0.23,VWS V14.00,2013-05-10 09:20:00,
2013-05-09 23:25:00,70.4,68.3,30.09,North,5,0.0,1.0,93,0.00,,---,0.23,VWS V14.00,2013-05-10 09:25:00,
2013-05-09 23:30:00,70.4,68.3,30.09,North,5,0.0,1.0,93,0.00,,---,0.23,VWS V14.00,2013-05-10 09:30:00,
2013-05-09 23:35:00,70.3,68.2,30.09,North,5,0.0,1.0,93,0.00,,---,0.23,VWS V14.00,2013-05-10 09:35:00,
2013-05-09 23:40:00,70.3,68.2,30.09,North,5,0.0,1.0,93,0.00,,---,0.23,VWS V14.00,2013-05-10 09:40:00,
2013-05-09 23:45:00,70.3,68.2,30.09,North,5,0.0,1.0,93,0.00,,---,0.23,VWS V14.00,2013-05-10 09:45:00,
2013-05-09 23:50:00,70.4,68.3,30.09,North,5,0.0,1.0,93,0.00,,---,0.23,VWS V14.00,2013-05-10 09:50:00,
2013-05-09 23:55:00,70.3,68.2,30.09,North,5,0.0,1.0,93,0.00,,---,0.23,VWS V14.00,2013-05-10 09:55:00,